[[{"header":{"parameterUnit":"m.s-1","parameterCategory":2,"la1":30.2991,"la2":30.254,"lo1":-89.0895,"lo2":-89.0444,"dy":0.0017,"dx":0.0017,"nx":28,"ny":28,"refTime":"2024-08-04T09:00:00:Z","depth":"0","parameterNumber":2,"parameterNumberName":"U-component_of_CURRENTS"},"data":[0,0,0,0,0,0,0,0,0,0,0,0,0,0,0,0,0,0,0,0,0,0,0,0,0,0,0,0,0,0,0,0,0,0,0,0,0,0,0,0,0,0,0,0,0,0,0,0,0,0,0,0,0,0,0,0,0,0,-0.2375,-0.2377,0,-0.2535,-0.2537,-0.2538,-0.2682,-0.2684,-0.2686,-0.2688,-0.2877,-0.288,-0.2883,0,0,0,0,0,0,0,0,0,0,0,0,0,-0.2078,-0.2083,-0.2375,-0.2377,-0.2379,-0.2535,-0.2537,-0.2539,-0.2682,-0.2684,-0.2687,-0.2689,-0.2875,-0.2879,-0.2883,0,0,0,0,0,0,0,0,0,0,0,0,0,-0.2218,-0.2085,-0.2374,-0.2471,-0.2481,-0.2534,-0.2537,-0.2539,-0.2682,-0.2684,-0.2687,-0.269,-0.2874,-0.2879,-0.2884,-0.2859,0,0,-0.2899,-0.2901,0,0,0,0,0,0,0,0,-0.221,-0.2229,-0.2454,-0.2464,-0.2476,-0.2593,-0.2501,-0.2648,-0.2681,-0.2604,-0.2688,-0.2691,-0.2783,-0.2796,-0.2817,-0.2868,-0.2876,-0.2899,-0.2902,-0.2905,-0.2906,0,0,0,0,0,0,0,-0.22,-0.2222,-0.2437,-0.2456,-0.2469,-0.2466,-0.249,-0.2529,-0.2675,-0.2611,-0.2622,-0.2641,-0.279,-0.2812,-0.2823,-0.2879,-0.2899,-0.2904,-0.2907,-0.2909,-0.2859,-0.2855,0,0,0,0,0,0,-0.2188,-0.2214,-0.2432,-0.2442,-0.2349,-0.247,-0.2496,-0.2551,-0.2675,-0.2696,-0.2639,-0.2647,-0.2802,-0.2817,-0.283,-0.2827,-0.2904,-0.2909,-0.2912,-0.2863,-0.2858,-0.2853,0,0,0,0,0,0,-0.2181,-0.2207,-0.2425,-0.2329,-0.2358,-0.2473,-0.2533,-0.2553,-0.258,-0.2696,-0.2719,-0.2646,-0.2805,-0.2823,-0.2827,-0.2835,-0.2911,-0.2916,-0.2868,-0.2862,-0.2856,-0.2809,0,0,0,0,0,0,-0.2172,-0.2204,-0.222,-0.233,-0.2363,-0.2455,-0.2531,-0.2554,-0.2588,-0.2601,-0.2708,-0.2729,-0.2809,-0.2818,-0.2832,-0.2843,-0.292,-0.2874,-0.2865,-0.2858,-0.2816,-0.2801,-0.2789,0,0,0,0,0,-0.2162,-0.2169,-0.2221,-0.2246,-0.2389,-0.2454,-0.2469,-0.2557,-0.2585,-0.2591,-0.2631,-0.2726,-0.2777,-0.2818,-0.2835,-0.2849,-0.2878,-0.2868,-0.2858,-0.2822,-0.2804,-0.279,0,0,0,0,0,0,-0.2041,-0.2188,-0.2246,-0.2299,-0.2372,-0.2479,-0.2482,-0.2536,-0.2572,-0.2577,-0.2676,-0.2698,-0.2713,-0.2744,-0.2787,-0.2794,-0.284,-0.2834,-0.2806,-0.2791,-0.2778,-0.281,-0.2924,0,0,0,0,0,-0.2023,-0.2063,-0.2202,-0.2227,-0.227,-0.2367,-0.2396,-0.2461,-0.2516,-0.2538,-0.2608,-0.2649,-0.268,-0.2706,-0.2743,-0.274,-0.2729,-0.2746,-0.2733,-0.2723,-0.2748,-0.2723,-0.2712,-0.2822,-0.2822,-0.2822,0,0,-0.1971,-0.2056,-0.2076,-0.2201,-0.2263,-0.2323,-0.2391,-0.2432,-0.2467,-0.2547,-0.2581,-0.2615,-0.2662,-0.2676,-0.2683,-0.2711,-0.2656,-0.271,-0.2702,-0.2734,-0.2712,-0.2702,-0.2694,-0.2815,-0.2816,-0.2817,0,0,-0.1889,-0.1979,-0.1997,-0.2072,-0.2174,-0.2248,-0.2255,-0.2365,-0.2402,-0.2423,-0.2486,-0.25,-0.2553,-0.2598,-0.2622,-0.2537,-0.2589,-0.2544,-0.2524,-0.2497,-0.249,-0.2485,-0.2355,-0.2339,-0.2539,-0.2539,-0.2539,0,-0.1827,-0.1907,-0.1997,-0.2051,-0.2111,-0.2213,-0.2257,-0.2301,-0.2386,-0.2403,-0.2421,-0.2478,-0.2521,-0.2547,-0.2528,-0.2522,-0.2481,-0.2599,-0.2488,-0.2483,-0.2478,-0.2348,-0.2331,-0.2536,-0.2536,-0.2536,-0.2537,0,-0.1788,-0.1863,-0.1872,-0.1998,-0.2049,-0.2099,-0.2204,-0.2231,-0.2276,-0.2335,-0.2357,-0.2394,-0.244,-0.2438,-0.2474,-0.2463,-0.2428,-0.2481,-0.2551,-0.2466,-0.233,-0.2313,-0.2531,-0.2532,-0.2533,-0.2534,0,0,-0.1679,-0.1823,-0.1841,-0.1898,-0.2046,-0.2083,-0.2124,-0.2207,-0.2218,-0.2279,-0.2286,-0.2338,-0.2377,-0.2401,-0.2439,-0.2422,-0.2316,-0.2443,-0.2443,-0.2351,-0.218,-0.2065,-0.2035,-0.237,-0.2369,-0.2368,-0.2064,0,-0.1651,-0.1726,-0.1813,-0.1882,-0.1949,-0.2054,-0.2082,-0.2147,-0.2191,-0.2209,-0.2258,-0.2277,-0.2358,-0.2361,-0.2369,-0.2347,-0.2285,-0.2389,-0.2246,-0.2239,-0.2183,-0.2019,-0.1945,-0.1664,-0.2048,-0.2045,-0.2043,0,-0.1643,-0.1697,-0.1762,-0.1867,-0.19,-0.1935,-0.2006,-0.2043,-0.2097,-0.2123,-0.2176,-0.2218,-0.2227,-0.2282,-0.2225,-0.2292,-0.2235,-0.2199,-0.2188,-0.2109,-0.2097,-0.1826,-0.162,-0.1623,-0.2018,-0.202,-0.2021,0,-0.1573,-0.1682,-0.1725,-0.1775,-0.189,-0.1902,-0.1945,-0.2009,-0.2029,-0.2062,-0.2052,-0.2111,-0.2084,-0.209,-0.2057,-0.2133,-0.1936,-0.2022,-0.1841,-0.1827,-0.1752,-0.1735,-0.1579,-0.1943,-0.1944,-0.1945,-0.1946,0,-0.1575,-0.1612,-0.1687,-0.1726,-0.1738,-0.1829,-0.1844,-0.1883,-0.1924,-0.1902,-0.2003,-0.1964,-0.2044,-0.197,-0.1974,-0.1822,-0.1861,-0.1793,-0.175,-0.1714,-0.1698,-0.1694,-0.1739,-0.1933,-0.1936,-0.1938,-0.194,0,-0.1521,-0.1595,-0.1635,-0.1708,-0.1723,-0.1722,-0.1789,-0.1782,-0.1827,-0.1784,-0.1784,-0.1813,-0.1707,-0.1721,-0.1641,-0.1648,-0.1503,-0.1484,-0.1382,-0.1335,-0.1214,-0.1258,-0.1058,-0.1034,-0.1226,-0.1222,-0.1218,0,-0.15,-0.1518,-0.1583,-0.1607,-0.1642,-0.1665,-0.1669,-0.1727,-0.1714,-0.1669,-0.1613,-0.1519,-0.1413,-0.1242,-0.1245,-0.1139,-0.1248,-0.1015,-0.1178,-0.1146,-0.1165,-0.1232,-0.1236,-0.0995,-0.0989,-0.0985,-0.0982,0,-0.1455,-0.1479,-0.154,-0.1534,-0.1544,-0.1526,-0.1525,-0.1494,-0.1503,-0.1443,-0.1279,-0.1172,-0.1028,-0.09,-0.0815,-0.0801,-0.0998,-0.0919,-0.0942,-0.0998,-0.1008,-0.0985,-0.1194,-0.0943,-0.0947,-0.095,-0.0952,-0.0953,-0.1433,-0.1449,-0.1504,-0.1468,-0.146,-0.1337,-0.1297,-0.125,-0.1146,-0.0998,-0.0951,-0.0741,-0.0629,-0.051,-0.0523,-0.0533,-0.0651,-0.0579,-0.0624,-0.0687,-0.0715,-0.0782,-0.0481,-0.0482,-0.0483,-0.0484,-0.0485,0,-0.1431,-0.144,-0.1417,-0.1376,-0.1266,-0.127,-0.117,-0.1101,-0.0909,-0.0736,-0.0566,-0.0294,-0.0188,-0.0215,-0.0239,-0.0263,-0.0353,-0.0305,-0.0429,-0.0445,-0.0522,-0.0569,-0.0208,-0.0208,-0.0208,-0.0208,-0.0208,-0.0208,-0.145,-0.1442,-0.1369,-0.1158,-0.1114,-0.0968,-0.0883,-0.077,-0.0657,-0.036,-0.0183,-0.0059,-0.0012,-0.0006,-0.0114,-0.0161,-0.0246,-0.021,-0.0279,-0.0398,-0.0431,-0.0463,-0.0519,-0.0153,-0.0153,-0.0202,-0.0203,-0.0203]},{"header":{"parameterUnit":"m.s-1","parameterCategory":2,"la1":30.2991,"la2":30.254,"lo1":-89.0895,"lo2":-89.0444,"dy":0.0017,"dx":0.0017,"nx":28,"ny":28,"refTime":"2024-08-04T09:00:00:Z","depth":"0","parameterNumber":3,"parameterNumberName":"V-component_of_CURRENTS"},"data":[0,0,0,0,0,0,0,0,0,0,0,0,0,0,0,0,0,0,0,0,0,0,0,0,0,0,0,0,0,0,0,0,0,0,0,0,0,0,0,0,0,0,0,0,0,0,0,0,0,0,0,0,0,0,0,0,0,0,-0.0445,-0.0443,0,-0.0271,-0.0268,-0.0266,-0.0112,-0.0111,-0.011,-0.0109,0.0282,0.0291,0.03,0,0,0,0,0,0,0,0,0,0,0,0,0,-0.0517,-0.0517,-0.0445,-0.0443,-0.0442,-0.0271,-0.0268,-0.0265,-0.0112,-0.0111,-0.0109,-0.0108,0.0279,0.029,0.0301,0,0,0,0,0,0,0,0,0,0,0,0,0,-0.0424,-0.0517,-0.0445,-0.0349,-0.0339,-0.0272,-0.0268,-0.0265,-0.0113,-0.0111,-0.0109,-0.0107,0.0275,0.0289,0.0302,0.035,0,0,0.0344,0.035,0,0,0,0,0,0,0,0,-0.0429,-0.042,-0.0365,-0.0355,-0.0344,-0.0216,-0.0151,-0.005,-0.0113,-0.0193,-0.0108,-0.0106,0.013,0.0156,0.019,0.0368,0.0385,0.0346,0.0354,0.036,0.0364,0,0,0,0,0,0,0,-0.0436,-0.0426,-0.037,-0.0363,-0.0351,-0.0271,-0.0256,-0.0131,-0.0036,-0.0186,-0.0175,-0.0166,0.0138,0.0176,0.02,0.039,0.0345,0.0358,0.0366,0.0372,0.0597,0.0595,0,0,0,0,0,0,-0.0478,-0.0434,-0.0376,-0.0365,-0.0389,-0.0272,-0.0255,-0.0255,-0.0041,-0.001,-0.0168,-0.0159,0.0151,0.0184,0.0215,0.027,0.036,0.0373,0.0381,0.06,0.0597,0.0594,0,0,0,0,0,0,-0.048,-0.0475,-0.0383,-0.0399,-0.0382,-0.0275,-0.0274,-0.0252,-0.0214,-0.0031,0.0006,-0.0152,0.0154,0.0196,0.0295,0.0287,0.0379,0.0392,0.0602,0.0599,0.0596,0.039,0,0,0,0,0,0,-0.0483,-0.0477,-0.0488,-0.0403,-0.0383,-0.0353,-0.0276,-0.0251,-0.0214,-0.0201,-0.0006,0.0032,0.0159,0.0273,0.0308,0.0308,0.0402,0.0605,0.0601,0.0597,0.04,0.038,0.0363,0,0,0,0,0,-0.0487,-0.0504,-0.0489,-0.0482,-0.0403,-0.0355,-0.0337,-0.0249,-0.0216,-0.0206,-0.0097,0.0026,0.0271,0.0282,0.0324,0.0328,0.0607,0.0602,0.0597,0.0408,0.0384,0.0363,0,0,0,0,0,0,-0.0526,-0.0488,-0.047,-0.0472,-0.0428,-0.0331,-0.0315,-0.0268,-0.0177,-0.016,0.0006,0.0051,0.0136,0.0244,0.0251,0.0373,0.0457,0.046,0.0298,0.0278,0.0259,0.0243,0.0414,0,0,0,0,0,-0.0552,-0.0557,-0.0506,-0.0506,-0.0496,-0.0416,-0.0386,-0.0334,-0.0248,-0.0206,-0.0082,0.0043,0.0145,0.0218,0.0331,0.0403,0.0491,0.0427,0.0408,0.0392,0.0403,0.0482,0.0472,0.0577,0.0577,0.0578,0,0,-0.0563,-0.0547,-0.0546,-0.0517,-0.0474,-0.0464,-0.039,-0.0359,-0.0338,-0.0175,-0.0107,-0.0008,0.0146,0.022,0.0268,0.0315,0.0401,0.0386,0.0371,0.0392,0.0476,0.0466,0.0457,0.0574,0.0575,0.0575,0,0,-0.0595,-0.0585,-0.0603,-0.0584,-0.0548,-0.0502,-0.0508,-0.0432,-0.0385,-0.0327,-0.0216,-0.0147,0.003,0.0118,0.0191,0.0137,0.0296,0.018,0.0093,0.0167,0.016,0.0155,0.0221,0.0223,0.0176,0.0175,0.0175,0,-0.0611,-0.0634,-0.0597,-0.0612,-0.06,-0.0534,-0.0544,-0.0496,-0.0396,-0.0356,-0.0327,-0.0128,-0.0021,0.0076,0.0039,0.01,0.0171,0.0164,0.0144,0.0141,0.0139,0.0209,0.0214,0.0165,0.0166,0.0167,0.0168,0,-0.0655,-0.0677,-0.0687,-0.069,-0.0668,-0.067,-0.0615,-0.0582,-0.0532,-0.0471,-0.0383,-0.0269,-0.0139,-0.0122,-0.0053,-0.0013,0.0049,0.0104,0.0198,0.0116,0.0195,0.0204,0.015,0.0154,0.0157,0.0159,0,0,-0.068,-0.0715,-0.0719,-0.0734,-0.0715,-0.0694,-0.0677,-0.0627,-0.058,-0.0524,-0.0451,-0.037,-0.0305,-0.0224,-0.0137,-0.01,-0.0093,-0.0021,-0.0012,0.0041,0.0073,0.0087,0.01,-0.0035,-0.0034,-0.0033,0.0122,0,-0.0727,-0.0787,-0.0778,-0.0808,-0.0832,-0.0775,-0.0749,-0.0689,-0.0616,-0.0527,-0.0447,-0.0341,-0.0339,-0.0268,-0.0248,-0.0089,-0.0072,-0.0139,0.015,0.0159,0.0179,0.011,0.0124,0.0262,0.0132,0.0134,0.0135,0,-0.0777,-0.0809,-0.0869,-0.0865,-0.0863,-0.0857,-0.0781,-0.0745,-0.0624,-0.0558,-0.0476,-0.037,-0.0291,-0.0281,-0.0124,-0.0159,-0.0078,0.0003,0.0013,0.0115,0.0191,0.0331,0.0285,0.0311,0.0151,0.015,0.0149,0,-0.0822,-0.0863,-0.0915,-0.0922,-0.0909,-0.0893,-0.0856,-0.0754,-0.0666,-0.0556,-0.0454,-0.0369,-0.0246,-0.0176,-0.0036,-0.0059,0.0149,0.0158,0.0232,0.0236,0.0351,0.0362,0.0369,0.0233,0.0233,0.0232,0.0232,0,-0.0889,-0.0918,-0.0937,-0.0967,-0.0942,-0.0928,-0.0849,-0.0794,-0.0658,-0.0492,-0.0462,-0.03,-0.021,-0.0066,-0.0008,0.015,0.0175,0.0213,0.0274,0.0274,0.0276,0.0392,0.0399,0.0238,0.0237,0.0236,0.0235,0,-0.0928,-0.0969,-0.0994,-0.0993,-0.0972,-0.0943,-0.0808,-0.0689,-0.0633,-0.0404,-0.0352,-0.0199,-0.0036,0.004,0.0214,0.024,0.039,0.0397,0.0377,0.043,0.0482,0.0477,0.0592,0.0642,0.0498,0.0499,0.05,0,-0.0956,-0.0995,-0.0985,-0.0908,-0.0896,-0.0834,-0.071,-0.0661,-0.0503,-0.0297,-0.0139,0.0013,0.0202,0.038,0.0401,0.0479,0.0489,0.0552,0.0478,0.0476,0.0518,0.0498,0.0531,0.0551,0.0552,0.0553,0.0554,0,-0.0958,-0.096,-0.0941,-0.0771,-0.0658,-0.054,-0.039,-0.0302,-0.0159,-0.0007,0.0266,0.0392,0.0486,0.0569,0.0571,0.0606,0.0567,0.0576,0.0602,0.0567,0.0528,0.0611,0.045,0.0564,0.0563,0.0562,0.0562,0.0561,-0.0887,-0.0815,-0.0706,-0.0517,-0.0381,-0.0162,-0.0056,0.0106,0.0313,0.0545,0.061,0.0786,0.0756,0.0735,0.0725,0.068,0.066,0.0696,0.0697,0.0681,0.0695,0.053,0.0688,0.0688,0.0688,0.0688,0.0688,0,-0.0645,-0.0532,-0.0388,-0.0155,0.0071,0.0078,0.0278,0.0382,0.0623,0.0762,0.0954,0.109,0.1039,0.0924,0.0816,0.0811,0.0792,0.082,0.0796,0.0832,0.0727,0.069,0.0822,0.0822,0.0822,0.0822,0.0822,0.0822,-0.049,-0.0229,-0.0124,0.03,0.0433,0.0678,0.0779,0.0869,0.0936,0.1139,0.1235,0.1286,0.1229,0.1,0.09,0.0897,0.0939,0.0909,0.095,0.0855,0.0842,0.0831,0.0795,0.0948,0.0948,0.1058,0.1059,0.106]}],[{"header":{"parameterUnit":"m.s-1","parameterCategory":2,"la1":30.2991,"la2":30.254,"lo1":-89.0895,"lo2":-89.0444,"dy":0.0017,"dx":0.0017,"nx":28,"ny":28,"refTime":"2024-08-04T09:00:00:Z","depth":"2","parameterNumber":2,"parameterNumberName":"U-component_of_CURRENTS"},"data":[0,0,0,0,0,0,0,0,0,0,0,0,0,0,0,0,0,0,0,0,0,0,0,0,0,0,0,0,0,0,0,0,0,0,0,0,0,0,0,0,0,0,0,0,0,0,0,0,0,0,0,0,0,0,0,0,0,0,-0.1533,-0.1534,0,-0.1536,-0.1535,-0.1535,-0.1592,-0.1594,-0.1596,-0.1598,-0.1642,-0.1642,-0.1641,0,0,0,0,0,0,0,0,0,0,0,0,0,-0.1535,-0.1535,-0.1533,-0.1534,-0.1535,-0.1536,-0.1535,-0.1534,-0.1592,-0.1594,-0.1597,-0.1599,-0.1643,-0.1642,-0.1641,0,0,0,0,0,0,0,0,0,0,0,0,0,-0.1529,-0.1534,-0.1533,-0.1568,-0.1572,-0.1536,-0.1535,-0.1534,-0.1591,-0.1594,-0.1598,-0.16,-0.1643,-0.1642,-0.1641,-0.1571,0,0,-0.1637,-0.1637,0,0,0,0,0,0,0,0,-0.153,-0.1528,-0.1562,-0.1566,-0.157,-0.1573,-0.1552,-0.1551,-0.159,-0.1577,-0.1598,-0.1602,-0.1625,-0.1625,-0.1609,-0.1573,-0.1575,-0.1637,-0.1636,-0.1636,-0.1636,0,0,0,0,0,0,0,-0.153,-0.1529,-0.1528,-0.1563,-0.1568,-0.1569,-0.1572,-0.1551,-0.1579,-0.1578,-0.1584,-0.1594,-0.1627,-0.161,-0.1611,-0.1576,-0.1637,-0.1636,-0.1635,-0.1635,-0.1526,-0.1524,0,0,0,0,0,0,-0.1541,-0.1529,-0.1528,-0.1528,-0.1564,-0.1567,-0.157,-0.1563,-0.1579,-0.1585,-0.1591,-0.1597,-0.161,-0.1612,-0.1613,-0.1589,-0.1636,-0.1635,-0.1634,-0.1528,-0.1526,-0.1523,0,0,0,0,0,0,-0.1541,-0.154,-0.1528,-0.1535,-0.1535,-0.1565,-0.1557,-0.1562,-0.158,-0.1589,-0.1596,-0.1611,-0.1613,-0.1614,-0.1593,-0.1589,-0.1634,-0.1633,-0.1531,-0.1527,-0.1524,-0.1505,0,0,0,0,0,0,-0.1541,-0.154,-0.1533,-0.1535,-0.1535,-0.1518,-0.1555,-0.156,-0.1583,-0.159,-0.1606,-0.1612,-0.1615,-0.1595,-0.1592,-0.1589,-0.1632,-0.1534,-0.1529,-0.1525,-0.1508,-0.1501,-0.1495,0,0,0,0,0,-0.154,-0.1534,-0.1532,-0.1533,-0.1526,-0.1518,-0.1516,-0.1545,-0.1581,-0.1575,-0.1577,-0.1613,-0.1568,-0.1591,-0.1589,-0.1585,-0.1536,-0.1531,-0.1526,-0.1511,-0.1502,-0.1495,0,0,0,0,0,0,-0.1532,-0.1539,-0.1538,-0.1533,-0.1528,-0.1531,-0.153,-0.1553,-0.1547,-0.1558,-0.1578,-0.158,-0.1563,-0.1561,-0.1587,-0.1536,-0.156,-0.1554,-0.1549,-0.1541,-0.1535,-0.1579,-0.1631,0,0,0,0,0,-0.1522,-0.1517,-0.152,-0.1509,-0.151,-0.1519,-0.1522,-0.1536,-0.1537,-0.1541,-0.1554,-0.1549,-0.1529,-0.1529,-0.151,-0.1477,-0.1481,-0.1471,-0.1464,-0.1459,-0.1489,-0.1497,-0.1496,-0.1507,-0.1507,-0.1507,0,0,-0.1513,-0.1518,-0.1512,-0.1507,-0.1503,-0.1493,-0.1528,-0.1529,-0.1528,-0.1541,-0.1542,-0.1529,-0.1513,-0.1478,-0.1471,-0.1485,-0.1439,-0.1453,-0.1449,-0.1483,-0.1492,-0.1492,-0.1492,-0.1504,-0.1504,-0.1505,0,0,-0.1493,-0.1495,-0.1483,-0.1478,-0.1479,-0.1481,-0.149,-0.1495,-0.1509,-0.1483,-0.1497,-0.1486,-0.1453,-0.1449,-0.1439,-0.1381,-0.1404,-0.1369,-0.1379,-0.1385,-0.1386,-0.1387,-0.132,-0.1316,-0.1368,-0.1368,-0.1368,0,-0.1476,-0.1466,-0.1476,-0.1464,-0.147,-0.1482,-0.1475,-0.147,-0.147,-0.1491,-0.1483,-0.1457,-0.1443,-0.1427,-0.14,-0.1375,-0.136,-0.1416,-0.1382,-0.1384,-0.1386,-0.1317,-0.1313,-0.1367,-0.1367,-0.1367,-0.1367,0,-0.1445,-0.1441,-0.1435,-0.1424,-0.1429,-0.1419,-0.1427,-0.1438,-0.1455,-0.1463,-0.146,-0.1419,-0.1427,-0.1395,-0.1378,-0.1377,-0.135,-0.1376,-0.1416,-0.1384,-0.1312,-0.1307,-0.1364,-0.1365,-0.1365,-0.1366,0,0,-0.1395,-0.1409,-0.1406,-0.1411,-0.1412,-0.1415,-0.1423,-0.1442,-0.146,-0.1451,-0.1468,-0.1425,-0.1443,-0.1431,-0.1409,-0.1397,-0.1352,-0.1391,-0.1392,-0.1347,-0.1314,-0.1206,-0.119,-0.1384,-0.1385,-0.1385,-0.1234,0,-0.1362,-0.1353,-0.137,-0.1364,-0.1365,-0.1396,-0.1404,-0.143,-0.1435,-0.1444,-0.1446,-0.1428,-0.1444,-0.1422,-0.1429,-0.137,-0.1352,-0.1388,-0.1334,-0.1331,-0.126,-0.1187,-0.1109,-0.0963,-0.123,-0.123,-0.1229,0,-0.1326,-0.1331,-0.1326,-0.1363,-0.1367,-0.1368,-0.1412,-0.1414,-0.1442,-0.1446,-0.1471,-0.1464,-0.1449,-0.1449,-0.1405,-0.1429,-0.1389,-0.1339,-0.1334,-0.1256,-0.1218,-0.1049,-0.0946,-0.1222,-0.1223,-0.1223,-0.1224,0,-0.13,-0.1309,-0.1314,-0.1317,-0.1345,-0.1372,-0.1394,-0.1428,-0.1419,-0.1444,-0.1421,-0.1454,-0.1411,-0.1416,-0.134,-0.1377,-0.1253,-0.1294,-0.1157,-0.1145,-0.1082,-0.1064,-0.1283,-0.1283,-0.1284,-0.1284,-0.1285,0,-0.1266,-0.127,-0.1306,-0.13,-0.1309,-0.1359,-0.1356,-0.1388,-0.1394,-0.1367,-0.1422,-0.1376,-0.1406,-0.1344,-0.1321,-0.1197,-0.1252,-0.1145,-0.1111,-0.1058,-0.1041,-0.1297,-0.13,-0.1278,-0.128,-0.1281,-0.1282,0,-0.1227,-0.1249,-0.1245,-0.128,-0.1289,-0.1296,-0.1302,-0.1286,-0.1321,-0.1277,-0.1277,-0.1289,-0.1212,-0.119,-0.1128,-0.1119,-0.1038,-0.0987,-0.0878,-0.0836,-0.0927,-0.0931,-0.0828,-0.0823,-0.0819,-0.0815,-0.0812,0,-0.1202,-0.1195,-0.1202,-0.1183,-0.1192,-0.1202,-0.1187,-0.1233,-0.1203,-0.1208,-0.1164,-0.1107,-0.1048,-0.0899,-0.0845,-0.075,-0.0861,-0.0647,-0.073,-0.0908,-0.0886,-0.0897,-0.0906,-0.0597,-0.0593,-0.0589,-0.0587,0,-0.1132,-0.1133,-0.112,-0.1081,-0.1063,-0.1048,-0.1043,-0.1018,-0.106,-0.1033,-0.0989,-0.0953,-0.0809,-0.068,-0.0561,-0.052,-0.0665,-0.0569,-0.0788,-0.0731,-0.0681,-0.0663,-0.0682,-0.0555,-0.0558,-0.056,-0.0562,-0.0563,-0.1059,-0.1015,-0.0986,-0.0949,-0.093,-0.0907,-0.0873,-0.0872,-0.0841,-0.0796,-0.0817,-0.0718,-0.0681,-0.0438,-0.0372,-0.0309,-0.0379,-0.0401,-0.0417,-0.0436,-0.0443,-0.039,-0.0204,-0.0205,-0.0206,-0.0207,-0.0208,0,-0.0924,-0.0885,-0.0847,-0.0795,-0.0748,-0.0792,-0.0762,-0.0716,-0.0664,-0.0613,-0.0564,-0.0464,-0.0346,-0.0293,-0.0136,-0.0108,-0.0162,-0.0115,-0.0211,-0.0239,-0.0265,-0.0271,0.0018,0.0018,0.0018,0.0018,0,0,-0.0842,-0.0748,-0.0728,-0.0625,-0.0608,-0.0534,-0.0518,-0.0482,-0.0425,-0.0346,-0.0275,-0.0273,-0.0253,-0.0134,-0.0093,-0.0005,-0.0126,0.0014,-0.0157,-0.0293,-0.032,-0.0404,-0.0439,0,0,0,0,0]},{"header":{"parameterUnit":"m.s-1","parameterCategory":2,"la1":30.2991,"la2":30.254,"lo1":-89.0895,"lo2":-89.0444,"dy":0.0017,"dx":0.0017,"nx":28,"ny":28,"refTime":"2024-08-04T09:00:00:Z","depth":"2","parameterNumber":3,"parameterNumberName":"V-component_of_CURRENTS"},"data":[0,0,0,0,0,0,0,0,0,0,0,0,0,0,0,0,0,0,0,0,0,0,0,0,0,0,0,0,0,0,0,0,0,0,0,0,0,0,0,0,0,0,0,0,0,0,0,0,0,0,0,0,0,0,0,0,0,0,-0.0386,-0.0385,0,-0.0316,-0.0315,-0.0314,-0.028,-0.028,-0.0281,-0.0281,-0.0115,-0.011,-0.0106,0,0,0,0,0,0,0,0,0,0,0,0,0,-0.0434,-0.0434,-0.0386,-0.0385,-0.0384,-0.0316,-0.0315,-0.0314,-0.028,-0.028,-0.0281,-0.0281,-0.0116,-0.0111,-0.0106,0,0,0,0,0,0,0,0,0,0,0,0,0,-0.0393,-0.0434,-0.0386,-0.036,-0.0357,-0.0317,-0.0315,-0.0314,-0.028,-0.028,-0.0281,-0.0281,-0.0118,-0.0112,-0.0105,-0.0061,0,0,-0.0084,-0.0081,0,0,0,0,0,0,0,0,-0.0396,-0.0391,-0.0364,-0.0361,-0.0358,-0.0308,-0.0272,-0.0225,-0.028,-0.0308,-0.0281,-0.0281,-0.0171,-0.016,-0.0147,-0.0053,-0.0046,-0.0084,-0.008,-0.0077,-0.0075,0,0,0,0,0,0,0,-0.0398,-0.0394,-0.0357,-0.0363,-0.036,-0.0333,-0.0327,-0.0263,-0.0237,-0.0306,-0.0303,-0.0297,-0.0168,-0.0153,-0.0142,-0.0043,-0.0084,-0.0078,-0.0074,-0.0071,0.0087,0.0087,0,0,0,0,0,0,-0.0411,-0.0397,-0.0359,-0.0355,-0.0378,-0.0332,-0.0326,-0.0323,-0.024,-0.0228,-0.0297,-0.0296,-0.0165,-0.015,-0.0136,-0.0085,-0.0077,-0.007,-0.0067,0.0087,0.0087,0.0087,0,0,0,0,0,0,-0.0413,-0.0409,-0.0362,-0.0375,-0.0367,-0.0332,-0.0328,-0.0322,-0.0309,-0.0235,-0.0221,-0.0292,-0.0164,-0.0146,-0.009,-0.0078,-0.0067,-0.0061,0.0086,0.0087,0.0087,0.0022,0,0,0,0,0,0,-0.0415,-0.041,-0.0413,-0.0376,-0.0367,-0.0342,-0.0328,-0.032,-0.0305,-0.0303,-0.0225,-0.021,-0.0163,-0.01,-0.0083,-0.0068,-0.0056,0.0086,0.0087,0.0087,0.0024,0.002,0.0017,0,0,0,0,0,-0.0417,-0.0422,-0.0414,-0.0409,-0.0373,-0.0342,-0.0335,-0.0309,-0.0305,-0.0299,-0.0254,-0.0213,-0.0086,-0.0095,-0.0074,-0.0057,0.0086,0.0086,0.0087,0.0026,0.0021,0.0017,0,0,0,0,0,0,-0.0445,-0.0418,-0.0409,-0.0406,-0.0378,-0.0337,-0.0333,-0.0314,-0.0275,-0.0272,-0.0207,-0.0189,-0.0135,-0.0089,-0.01,-0.0013,0.0007,0.0011,-0.0046,-0.005,-0.0054,-0.0068,-0.005,0,0,0,0,0,-0.0453,-0.0452,-0.0417,-0.0416,-0.0406,-0.0371,-0.0357,-0.0336,-0.0297,-0.0282,-0.0229,-0.0172,-0.0116,-0.0081,-0.0025,0.0028,0.0064,0.0051,0.0047,0.0043,0.0045,0.0097,0.0097,0.0088,0.0088,0.0088,0,0,-0.0464,-0.045,-0.0449,-0.0422,-0.0402,-0.0381,-0.0363,-0.0343,-0.0322,-0.0266,-0.0225,-0.0179,-0.0107,-0.0055,-0.0026,-0.0015,0.0064,0.0044,0.004,0.0044,0.0097,0.0098,0.0099,0.0088,0.0088,0.0088,0,0,-0.0484,-0.0474,-0.0477,-0.0453,-0.0424,-0.0397,-0.0394,-0.0352,-0.0333,-0.0288,-0.0247,-0.0202,-0.0112,-0.0066,-0.0028,-0.0015,0.004,0.0006,-0.0017,0.0033,0.0034,0.0035,0.0073,0.0078,0.0006,0.0006,0.0006,0,-0.0498,-0.0494,-0.0473,-0.0461,-0.0444,-0.0406,-0.0396,-0.0365,-0.0309,-0.0294,-0.0282,-0.0172,-0.0116,-0.0052,-0.0054,-0.0022,0.0009,-0.0008,0.0027,0.0029,0.0032,0.007,0.0077,0.0003,0.0003,0.0004,0.0004,0,-0.0512,-0.0504,-0.0503,-0.0477,-0.0456,-0.044,-0.0395,-0.0376,-0.035,-0.0315,-0.0259,-0.0192,-0.013,-0.0104,-0.0072,-0.0025,-0.0009,0.0012,0.0033,0.0029,0.007,0.0078,-0.0001,-0.0,0.0001,0.0002,0,0,-0.0541,-0.052,-0.0516,-0.0512,-0.0461,-0.045,-0.0418,-0.0381,-0.0364,-0.031,-0.0279,-0.02,-0.0175,-0.0132,-0.0085,-0.0043,-0.0005,-0.0015,-0.0011,0.0014,0.0097,0.0084,0.0092,0.0019,0.002,0.0021,0.0114,0,-0.0554,-0.0554,-0.0529,-0.0518,-0.0511,-0.0469,-0.0444,-0.0405,-0.0363,-0.032,-0.0257,-0.0202,-0.0179,-0.0151,-0.0108,-0.0019,0.0015,-0.0032,0.0106,0.011,0.0092,0.0101,0.0055,0.0132,0.0122,0.0124,0.0125,0,-0.0566,-0.0564,-0.0566,-0.0548,-0.0542,-0.0531,-0.0497,-0.0464,-0.0394,-0.0359,-0.0302,-0.0243,-0.0166,-0.015,-0.002,-0.0052,0.0009,0.0069,0.0075,0.0093,0.0113,0.0139,0.0148,0.0139,0.0138,0.0137,0.0136,0,-0.06,-0.0586,-0.0599,-0.0586,-0.0557,-0.0562,-0.0545,-0.0488,-0.0454,-0.0381,-0.034,-0.0253,-0.0181,-0.0104,0.0013,-0.0,0.0158,0.0159,0.0202,0.0202,0.0207,0.0204,0.0237,0.0237,0.0236,0.0236,0.0236,0,-0.0615,-0.0621,-0.0626,-0.0626,-0.064,-0.0609,-0.0598,-0.0567,-0.0499,-0.0454,-0.0368,-0.0293,-0.0164,-0.0055,0.0018,0.014,0.0163,0.0202,0.0228,0.0181,0.0176,0.0219,0.0215,0.024,0.0239,0.0238,0.0238,0,-0.0644,-0.0643,-0.0655,-0.0654,-0.0656,-0.0669,-0.0634,-0.0626,-0.0551,-0.0484,-0.0458,-0.0299,-0.0156,-0.0037,0.0124,0.0165,0.0268,0.03,0.0229,0.0244,0.0274,0.0266,0.0352,0.0353,0.0353,0.0353,0.0354,0,-0.0659,-0.067,-0.0685,-0.0709,-0.0716,-0.0721,-0.0727,-0.0663,-0.0645,-0.0482,-0.0461,-0.0282,-0.0162,0.0066,0.0178,0.03,0.031,0.0312,0.0271,0.027,0.0288,0.0279,0.0271,0.0255,0.0254,0.0254,0.0253,0,-0.0681,-0.0693,-0.0712,-0.0768,-0.0797,-0.0798,-0.0803,-0.0781,-0.0693,-0.0613,-0.0473,-0.0351,-0.0107,0.0044,0.0205,0.0265,0.0282,0.0305,0.0352,0.022,0.0182,0.0198,0.0193,0.0249,0.0249,0.025,0.025,0.025,-0.0702,-0.074,-0.0788,-0.0833,-0.0861,-0.0883,-0.0863,-0.0855,-0.0794,-0.0654,-0.0543,-0.0346,-0.0175,0.0062,0.0178,0.029,0.029,0.0284,0.0284,0.0285,0.0245,0.0209,0.0273,0.0273,0.0274,0.0274,0.0275,0,-0.0761,-0.0807,-0.0856,-0.0901,-0.0921,-0.0932,-0.0917,-0.0865,-0.0793,-0.0683,-0.0556,-0.0364,-0.0199,0.001,0.0175,0.0253,0.0251,0.0264,0.0235,0.0238,0.024,0.0197,0.0213,0.0213,0.0214,0.0214,0,0,-0.0796,-0.0874,-0.0901,-0.0943,-0.0963,-0.0953,-0.0928,-0.0858,-0.0764,-0.062,-0.0494,-0.0398,-0.0164,-0.008,0.0035,0.0142,0.0168,0.0148,0.0181,0.0133,0.0135,0.0228,0.0161,0,0,0,0,0]}],[{"header":{"parameterUnit":"m.s-1","parameterCategory":2,"la1":30.2991,"la2":30.254,"lo1":-89.0895,"lo2":-89.0444,"dy":0.0017,"dx":0.0017,"nx":28,"ny":28,"refTime":"2024-08-04T09:00:00:Z","depth":"4","parameterNumber":2,"parameterNumberName":"U-component_of_CURRENTS"},"data":[0,0,0,0,0,0,0,0,0,0,0,0,0,0,0,0,0,0,0,0,0,0,0,0,0,0,0,0,0,0,0,0,0,0,0,0,0,0,0,0,0,0,0,0,0,0,0,0,0,0,0,0,0,0,0,0,0,0,-0.0943,-0.0943,0,-0.0906,-0.0906,-0.0905,-0.0925,-0.0926,-0.0927,-0.0929,-0.0893,-0.0891,-0.0889,0,0,0,0,0,0,0,0,0,0,0,0,0,-0.1011,-0.1009,-0.0943,-0.0943,-0.0942,-0.0906,-0.0906,-0.0905,-0.0925,-0.0926,-0.0928,-0.0929,-0.0894,-0.0892,-0.0889,0,0,0,0,0,0,0,0,0,0,0,0,0,-0.0977,-0.1009,-0.0943,-0.0949,-0.0949,-0.0907,-0.0906,-0.0905,-0.0925,-0.0926,-0.0928,-0.093,-0.0895,-0.0892,-0.0889,-0.0836,0,0,-0.088,-0.0879,0,0,0,0,0,0,0,0,-0.0979,-0.0974,-0.0948,-0.0948,-0.0949,-0.0923,-0.0917,-0.0883,-0.0924,-0.0932,-0.0929,-0.0931,-0.0903,-0.09,-0.0887,-0.0835,-0.0833,-0.088,-0.0878,-0.0876,-0.0876,0,0,0,0,0,0,0,-0.0981,-0.0976,-0.0927,-0.0948,-0.0948,-0.0947,-0.0944,-0.091,-0.0908,-0.0932,-0.0934,-0.0931,-0.0903,-0.089,-0.0886,-0.0833,-0.088,-0.0877,-0.0875,-0.0874,-0.0822,-0.0822,0,0,0,0,0,0,-0.0987,-0.0978,-0.0928,-0.0926,-0.097,-0.0945,-0.0941,-0.0929,-0.0908,-0.0907,-0.093,-0.0932,-0.0894,-0.089,-0.0885,-0.0893,-0.0877,-0.0874,-0.0872,-0.0822,-0.0822,-0.0822,0,0,0,0,0,0,-0.0989,-0.0983,-0.093,-0.0953,-0.0947,-0.0942,-0.0927,-0.0927,-0.0935,-0.0907,-0.0906,-0.0942,-0.0895,-0.0889,-0.0886,-0.0889,-0.0872,-0.087,-0.0821,-0.0822,-0.0822,-0.0862,0,0,0,0,0,0,-0.0991,-0.0983,-0.0984,-0.0953,-0.0946,-0.0916,-0.0926,-0.0925,-0.0931,-0.0934,-0.0915,-0.0913,-0.0896,-0.0891,-0.0883,-0.0885,-0.0867,-0.0821,-0.0821,-0.0822,-0.0861,-0.0864,-0.0868,0,0,0,0,0,-0.0993,-0.0991,-0.0983,-0.0978,-0.0943,-0.0916,-0.0912,-0.0914,-0.093,-0.0929,-0.0932,-0.0915,-0.089,-0.0889,-0.0879,-0.088,-0.082,-0.0821,-0.0822,-0.0859,-0.0864,-0.0868,0,0,0,0,0,0,-0.1021,-0.0991,-0.0983,-0.0972,-0.095,-0.0921,-0.0923,-0.0922,-0.092,-0.0934,-0.0915,-0.0912,-0.0912,-0.0889,-0.0888,-0.0869,-0.0853,-0.0852,-0.0884,-0.0888,-0.0892,-0.088,-0.0865,0,0,0,0,0,-0.1024,-0.1017,-0.0983,-0.0975,-0.0965,-0.0945,-0.0939,-0.0937,-0.0928,-0.093,-0.0919,-0.091,-0.0901,-0.0893,-0.0878,-0.0858,-0.0835,-0.0855,-0.0858,-0.0861,-0.0846,-0.0833,-0.0833,-0.0826,-0.0826,-0.0826,0,0,-0.1034,-0.1017,-0.1014,-0.0981,-0.0966,-0.0948,-0.0946,-0.094,-0.0938,-0.0924,-0.0927,-0.0922,-0.0901,-0.0893,-0.0889,-0.0877,-0.0852,-0.0862,-0.0865,-0.0848,-0.0834,-0.0834,-0.0835,-0.0826,-0.0826,-0.0826,0,0,-0.1039,-0.1031,-0.1021,-0.1003,-0.0981,-0.0968,-0.097,-0.0947,-0.0952,-0.0944,-0.0946,-0.0945,-0.0919,-0.0908,-0.0898,-0.0906,-0.0877,-0.0906,-0.0905,-0.0893,-0.0893,-0.0893,-0.0869,-0.0867,-0.0902,-0.0902,-0.0902,0,-0.1047,-0.1026,-0.1015,-0.0996,-0.0987,-0.0979,-0.0964,-0.096,-0.0944,-0.0944,-0.0954,-0.0933,-0.0923,-0.0908,-0.0919,-0.0912,-0.0898,-0.0893,-0.0897,-0.0897,-0.0896,-0.0871,-0.0868,-0.0904,-0.0904,-0.0904,-0.0904,0,-0.1032,-0.1021,-0.1016,-0.099,-0.0983,-0.097,-0.096,-0.0962,-0.0971,-0.0962,-0.096,-0.0948,-0.0932,-0.0935,-0.0928,-0.0918,-0.0908,-0.091,-0.0887,-0.0899,-0.0872,-0.0868,-0.0907,-0.0906,-0.0906,-0.0905,0,0,-0.1014,-0.1004,-0.1001,-0.0996,-0.0979,-0.0971,-0.0975,-0.0962,-0.0967,-0.0961,-0.0953,-0.0949,-0.0945,-0.0934,-0.0927,-0.0915,-0.0906,-0.0911,-0.0909,-0.0886,-0.0872,-0.0791,-0.0779,-0.0915,-0.0915,-0.0914,-0.0857,0,-0.0994,-0.0973,-0.0975,-0.0966,-0.0952,-0.0958,-0.096,-0.0961,-0.0963,-0.0955,-0.0947,-0.0939,-0.0945,-0.0941,-0.0931,-0.0912,-0.0896,-0.0921,-0.0862,-0.086,-0.0786,-0.0771,-0.0913,-0.0854,-0.0852,-0.0852,-0.0851,0,-0.0962,-0.0956,-0.0943,-0.0954,-0.095,-0.0952,-0.0961,-0.0964,-0.0958,-0.096,-0.0951,-0.0938,-0.0917,-0.0923,-0.0887,-0.0905,-0.0888,-0.0873,-0.087,-0.0772,-0.0771,-0.0837,-0.0843,-0.0844,-0.0844,-0.0845,-0.0845,0,-0.0941,-0.0935,-0.0932,-0.0929,-0.0935,-0.0945,-0.0959,-0.0964,-0.0957,-0.096,-0.0939,-0.093,-0.0903,-0.0892,-0.0856,-0.0876,-0.0807,-0.0832,-0.0739,-0.0733,-0.0807,-0.0808,-0.08,-0.08,-0.08,-0.0801,-0.0801,0,-0.0902,-0.0903,-0.0928,-0.0919,-0.0924,-0.0946,-0.0948,-0.0962,-0.0956,-0.0923,-0.0939,-0.0891,-0.0894,-0.0848,-0.0841,-0.0759,-0.0794,-0.0719,-0.0706,-0.0827,-0.083,-0.0804,-0.0806,-0.0798,-0.0799,-0.0799,-0.08,0,-0.0864,-0.0879,-0.0876,-0.0897,-0.0907,-0.0914,-0.0929,-0.0912,-0.0935,-0.0886,-0.0877,-0.0849,-0.0789,-0.0772,-0.0735,-0.0712,-0.0667,-0.0632,-0.0742,-0.074,-0.0609,-0.0613,-0.0523,-0.0519,-0.0516,-0.0514,-0.0512,0,-0.0838,-0.0831,-0.0852,-0.0841,-0.0849,-0.0866,-0.0852,-0.089,-0.0861,-0.0838,-0.0787,-0.0735,-0.0704,-0.0583,-0.0599,-0.056,-0.0558,-0.0539,-0.0589,-0.058,-0.0577,-0.0586,-0.0594,-0.0507,-0.0506,-0.0506,-0.0505,0,-0.0778,-0.0792,-0.0783,-0.076,-0.0752,-0.0744,-0.0739,-0.0718,-0.0731,-0.0755,-0.0666,-0.0621,-0.0539,-0.0512,-0.0473,-0.0458,-0.0559,-0.0509,-0.0516,-0.0562,-0.056,-0.0562,-0.0573,-0.0495,-0.0496,-0.0497,-0.0498,0,-0.0728,-0.0697,-0.0677,-0.0655,-0.0638,-0.0598,-0.0631,-0.0587,-0.0578,-0.0576,-0.0542,-0.0507,-0.0513,-0.0455,-0.0425,-0.0392,-0.0396,-0.0404,-0.0417,-0.0428,-0.0424,-0.0409,-0.0265,0,0,0,0,0,-0.0652,-0.0593,-0.0564,-0.0527,-0.0514,-0.0512,-0.0515,-0.0551,-0.0579,-0.0489,-0.052,-0.0446,-0.0386,-0.0382,-0.0326,-0.0379,-0.0399,-0.0313,-0.0415,-0.0438,-0.045,-0.0454,0,0,0,0,0,0,-0.0588,-0.0543,-0.052,-0.042,-0.0386,-0.0361,-0.0368,-0.0408,-0.0375,-0.0414,-0.0382,-0.0413,-0.0363,-0.0399,-0.0313,-0.0311,-0.0364,-0.0311,-0.031,-0.0431,-0.0442,-0.0451,-0.046,0,0,0,0,0]},{"header":{"parameterUnit":"m.s-1","parameterCategory":2,"la1":30.2991,"la2":30.254,"lo1":-89.0895,"lo2":-89.0444,"dy":0.0017,"dx":0.0017,"nx":28,"ny":28,"refTime":"2024-08-04T09:00:00:Z","depth":"4","parameterNumber":3,"parameterNumberName":"V-component_of_CURRENTS"},"data":[0,0,0,0,0,0,0,0,0,0,0,0,0,0,0,0,0,0,0,0,0,0,0,0,0,0,0,0,0,0,0,0,0,0,0,0,0,0,0,0,0,0,0,0,0,0,0,0,0,0,0,0,0,0,0,0,0,0,-0.0257,-0.0256,0,-0.0226,-0.0226,-0.0225,-0.0233,-0.0234,-0.0234,-0.0235,-0.0231,-0.023,-0.023,0,0,0,0,0,0,0,0,0,0,0,0,0,-0.0283,-0.0283,-0.0257,-0.0256,-0.0256,-0.0226,-0.0226,-0.0225,-0.0233,-0.0234,-0.0234,-0.0235,-0.0231,-0.0231,-0.023,0,0,0,0,0,0,0,0,0,0,0,0,0,-0.0264,-0.0283,-0.0257,-0.0256,-0.0256,-0.0226,-0.0226,-0.0225,-0.0233,-0.0234,-0.0235,-0.0235,-0.0232,-0.0231,-0.023,-0.0205,0,0,-0.0227,-0.0226,0,0,0,0,0,0,0,0,-0.0265,-0.0263,-0.0257,-0.0256,-0.0256,-0.0234,-0.0234,-0.022,-0.0232,-0.0241,-0.0235,-0.0236,-0.0234,-0.0233,-0.0224,-0.0204,-0.0204,-0.0226,-0.0226,-0.0225,-0.0225,0,0,0,0,0,0,0,-0.0267,-0.0264,-0.0244,-0.0256,-0.0256,-0.0245,-0.0243,-0.0231,-0.0233,-0.0241,-0.0241,-0.0238,-0.0234,-0.0225,-0.0225,-0.0204,-0.0226,-0.0226,-0.0225,-0.0225,-0.0139,-0.0137,0,0,0,0,0,0,-0.0272,-0.0266,-0.0245,-0.0243,-0.0263,-0.0243,-0.0242,-0.024,-0.0233,-0.0232,-0.0237,-0.0238,-0.0227,-0.0226,-0.0224,-0.0188,-0.0225,-0.0224,-0.0224,-0.014,-0.0138,-0.0136,0,0,0,0,0,0,-0.0272,-0.027,-0.0247,-0.0254,-0.025,-0.0242,-0.024,-0.0239,-0.0238,-0.023,-0.023,-0.0238,-0.0227,-0.0226,-0.0199,-0.0189,-0.0224,-0.0223,-0.0142,-0.014,-0.0137,-0.012,0,0,0,0,0,0,-0.0273,-0.0271,-0.0274,-0.0254,-0.025,-0.0231,-0.0239,-0.0238,-0.0234,-0.0235,-0.023,-0.023,-0.0228,-0.02,-0.0198,-0.0188,-0.0222,-0.0144,-0.0141,-0.0138,-0.0123,-0.0117,-0.0113,0,0,0,0,0,-0.0274,-0.0275,-0.0274,-0.0272,-0.0254,-0.0231,-0.0227,-0.0225,-0.0233,-0.0228,-0.0212,-0.0231,-0.0179,-0.0198,-0.0196,-0.0185,-0.0146,-0.0142,-0.0138,-0.0125,-0.0118,-0.0113,0,0,0,0,0,0,-0.0292,-0.0275,-0.0274,-0.0271,-0.0254,-0.0233,-0.0232,-0.0226,-0.0209,-0.0214,-0.0209,-0.0206,-0.018,-0.0176,-0.0197,-0.0147,-0.0166,-0.0161,-0.0156,-0.015,-0.0145,-0.016,-0.0221,0,0,0,0,0,-0.0295,-0.0294,-0.0271,-0.0271,-0.0264,-0.0248,-0.0241,-0.0234,-0.0216,-0.0211,-0.0202,-0.0185,-0.0159,-0.0152,-0.0133,-0.0106,-0.0112,-0.0095,-0.009,-0.0086,-0.0094,-0.0071,-0.0066,-0.0124,-0.0124,-0.0124,0,0,-0.0305,-0.0295,-0.0295,-0.0275,-0.0266,-0.0243,-0.0247,-0.0235,-0.0214,-0.0212,-0.0187,-0.0171,-0.0146,-0.0113,-0.0102,-0.0113,-0.0073,-0.0081,-0.0078,-0.0088,-0.0067,-0.0062,-0.0057,-0.0121,-0.0122,-0.0122,0,0,-0.0312,-0.0311,-0.0307,-0.0286,-0.0266,-0.0249,-0.0246,-0.0221,-0.0212,-0.0178,-0.0167,-0.0138,-0.0109,-0.0082,-0.0066,-0.0019,-0.0047,-0.0017,-0.0007,0.0015,0.0019,0.0023,0.0012,0.0015,-0.0015,-0.0015,-0.0015,0,-0.0323,-0.031,-0.0302,-0.0282,-0.0267,-0.0251,-0.0232,-0.021,-0.0178,-0.0169,-0.0171,-0.0112,-0.0091,-0.0044,-0.0023,-0.001,-0.0017,-0.0037,0.0019,0.0022,0.0026,0.0014,0.0017,-0.0014,-0.0014,-0.0014,-0.0014,0,-0.0316,-0.0302,-0.0298,-0.0267,-0.025,-0.0231,-0.0198,-0.0183,-0.0172,-0.0151,-0.0115,-0.0076,-0.0049,-0.0026,-0.0009,0.0031,0.0011,0.002,-0.0005,0.0032,0.0018,0.002,-0.0012,-0.0013,-0.0013,-0.0013,0,0,-0.0336,-0.0301,-0.0297,-0.0288,-0.0239,-0.023,-0.0193,-0.0161,-0.0157,-0.0114,-0.0103,-0.0032,-0.003,-0.0009,0.0016,0.0045,0.0072,0.0041,0.0041,0.0015,0.0091,0.0058,0.0057,0.0085,0.0086,0.0087,0.0067,0,-0.0329,-0.0303,-0.028,-0.0254,-0.0237,-0.021,-0.0184,-0.0155,-0.0135,-0.0121,-0.0074,-0.0053,-0.0017,-0.0014,0.0028,0.0055,0.008,0.0074,0.0073,0.0072,0.0026,0.006,0.0089,0.0069,0.0069,0.007,0.007,0,-0.0316,-0.0302,-0.028,-0.026,-0.0253,-0.0238,-0.022,-0.0195,-0.0159,-0.0148,-0.0113,-0.0089,-0.0036,-0.0016,0.005,0.0039,0.0067,0.0091,0.0091,0.0053,0.0044,0.003,0.0074,0.0073,0.0073,0.0073,0.0073,0,-0.0334,-0.0302,-0.0295,-0.028,-0.0249,-0.0251,-0.0242,-0.0211,-0.0209,-0.0177,-0.0178,-0.0114,-0.0098,-0.004,0.0017,0.0028,0.0072,0.0092,0.0088,0.0084,0.0108,0.0105,0.0139,0.0139,0.0139,0.0139,0.014,0,-0.0323,-0.0319,-0.0313,-0.0305,-0.0324,-0.0288,-0.0307,-0.0289,-0.0269,-0.0273,-0.0206,-0.0196,-0.0102,-0.0063,-0.0005,0.0037,0.0054,0.0086,0.0085,0.0116,0.0114,0.0109,0.0106,0.0139,0.0139,0.0139,0.0139,0,-0.0337,-0.0323,-0.0329,-0.0323,-0.0333,-0.0353,-0.0368,-0.0383,-0.0347,-0.0352,-0.0345,-0.0267,-0.0212,-0.0132,-0.0051,-0.0007,0.0044,0.0055,0.0054,0.0052,0.0044,0.0042,0.0046,0.0045,0.0044,0.0043,0.0042,0,-0.0339,-0.0339,-0.0369,-0.0405,-0.0412,-0.0439,-0.0466,-0.0437,-0.0446,-0.0396,-0.0403,-0.0341,-0.0286,-0.02,-0.0109,-0.0022,0.0004,0.0016,0.0068,0.0039,0.0038,0.0037,0.0037,0.004,0.004,0.004,0.004,0,-0.0358,-0.0379,-0.0402,-0.047,-0.0516,-0.0547,-0.0573,-0.0576,-0.0536,-0.0511,-0.0452,-0.0379,-0.032,-0.0219,-0.0158,-0.0085,0.0003,0.0006,0.001,0.0059,0.0033,0.0032,0.0033,0.0036,0.0037,0.0037,0.0037,0,-0.04,-0.0442,-0.0491,-0.0543,-0.0596,-0.0621,-0.063,-0.0624,-0.0609,-0.0532,-0.0523,-0.0419,-0.0357,-0.0254,-0.0196,-0.0134,-0.0101,-0.0071,-0.0063,-0.0058,-0.007,-0.0117,-0.0164,0,0,0,0,0,-0.0449,-0.0504,-0.0562,-0.061,-0.0648,-0.0665,-0.0686,-0.0677,-0.0633,-0.0605,-0.0552,-0.0489,-0.0367,-0.0305,-0.0248,-0.0218,-0.0102,-0.0151,-0.0066,0.0017,0.0021,0.0024,0,0,0,0,0,0,-0.0492,-0.0568,-0.0578,-0.063,-0.0661,-0.0696,-0.07,-0.0678,-0.0645,-0.0596,-0.0531,-0.048,-0.0365,-0.0398,-0.0246,-0.0225,-0.0166,-0.0089,-0.0088,0.0015,0.0019,0.0022,0.0026,0,0,0,0,0]}]]